OBJECT AD

基本信息
目录编号:
57193
目录名称:
OBJECT AD
国际标识:
2023-091AD
轨道中心:
EARTH
物体状态:
在轨
发射日期:
2023-06-27 UTC
国别:
(TBD)
轨道信息
数据来源: 国际轨道数据
星历时间: 2026-09-04T03:14:28+0800
半长轴: 6841.941km
偏心率: 0.0010222
轨道倾角: 97.498°
近地点辐角: 170.455°
升交点赤经: 313.437°
平近点角: 189.689°
近地点: 456.81km
远地点: 470.798km
周期: 93.870分钟
每日圈数: 15.340298
详细信息
发射场:
VOSTO
轨道高度:
LEO
数据来源:
AOE Integration Group
参考系:
TEME
时间系统:
UTC
历元类型:
SGP4
2D轨道图
3D轨道图
轨道高度分析图
轨道倾角分析图
轨道综合分析图
查看轨道综合分析图